Location: Makanda
(37.6176°N, 89.2090°W)
Time: 02:42:41
(UTC+00:00)

PAYLOAD A - Pass Details

Date: 23 September 2019
Orbit: 691 x 833 km, 98.3° (Epoch: 17 October)

Event Time Altitude Azimuth Distance (km) Brightness Sun altitude
Rises 10:49:35 0° 3° (N) 3,092 7.3 -11.8°
Reaches altitude 10° 10:51:58 10° 356° (N) 2,160 6.4 -11.3°
Maximum altitude 10:56:18 38° 289° (WNW) 1,061 4.3 -10.5°
Drops below altitude 10° 11:00:35 10° 222° (SW) 2,140 5.9 -9.7°
Sets 11:02:57 0° 214° (SW) 3,059 6.7 -9.2°
